Regional Weather Roundup
Issued by NWS

Home | Current Version | Previous Version | Text Only | Print | Product List | Glossary Off
Versions: 1 2 3 4 5 6 7 8 9 10 11 12 13 14 15 16 17 18 19 20 21 22 23 24 25 26 27 28 29 30 31 32 33 34 35 36 37 38 39 40 41 42 43 44 45 46 47 48 49 50

000
ASUS43 KFSD 230810
RWRSD

WEATHER ROUNDUP FOR SOUTH DAKOTA
NATIONAL WEATHER SERVICE SIOUX FALLS SD
300 AM CDT MON OCT 23 2017

NOTE: "FAIR" INDICATES FEW OR NO CLOUDS BELOW 12,000 FEET WITH NO
SIGNIFICANT WEATHER AND/OR OBSTRUCTIONS TO VISIBILITY.


SDZ001>005-009-010-012>017-230900-
NORTHWEST AND NORTH CENTRAL SOUTH DAKOTA

CITY           SKY/WX    TMP DP  RH WIND       PRES   REMARKS
BUFFALO          N/A     45  33  63 NW28G36   29.96R
MOBRIDGE       CLEAR     53  40  61 W17G30    29.86R
$$

SDZ012>016-024>037-041>051-057-063-072>074-230900-
SOUTHWEST AND SOUTH CENTRAL SOUTH DAKOTA

CITY           SKY/WX    TMP DP  RH WIND       PRES   REMARKS
RAPID CTY ARPT PTCLDY    52  21  29 NW29G39   30.05R
PIERRE         CLOUDY    54  44  69 W14       29.94R
CUSTER         CLOUDY    43  23  45 W12G23    30.12R
ELLSWORTH AFB  CLEAR     53  21  29 NW25G39   30.05R
PHILIP         CLOUDY    55  37  50 NW12      30.03R
PINE RIDGE     LGT RAIN  53  36  52 N15G28    30.12R
SPEARFISH      MOCLDY    50  19  29 NW24G37   30.11R
WINNER         LGT RAIN  55  45  68 NW12      29.95R
$$

SDZ004>011-016>023-039-040-230900-
NORTHEAST SOUTH DAKOTA

CITY           SKY/WX    TMP DP  RH WIND       PRES   REMARKS
ABERDEEN       PTCLDY    53  43  68 W21G29    29.79R
WATERTOWN      MOCLDY    50  39  66 SW8       29.79R
BROOKINGS      CLOUDY    46  36  68 W6        29.83R
SISSETON         N/A     59  44  57 W17G24    29.72R
$$

SDZ017-020-022-023-036>040-048>070-230900-
SOUTHEAST SOUTH DAKOTA

CITY           SKY/WX    TMP DP  RH WIND       PRES   REMARKS
SIOUX FALLS    CLOUDY    50  36  58 W5        29.84R
HURON          PTCLDY    54  43  66 W12       29.85R
CHAMBERLAIN    CLOUDY    56  45  66 NW9       29.92F
MITCHELL       MOCLDY    53  38  56 NW13      29.87R
YANKTON        PTCLDY    50  35  56 NW8       29.84R
$$

ABBREVIATIONS USED IN REMARKS
   TC - TEMPERATURE IN CELSIUS
  WCI - WIND CHILL INDEX
   HX - HEAT INDEX
  VSB - VISIBILITY




USA.gov is the U.S. government's official web portal to all federal, state and local government web resources and services.